SAOCOM 1A

Last updated on Wed Nov 05 2025 00:02:15 GMT+0000 (Coordinated Universal Time)

1 43641U 18076A 25308.66348672 .00000546 00000+0 75210-4 0 9993 2 43641 97.8871 133.6367 0001349 90.7321 269.4047 14.82146926382848
UTC large
Height (km)
Speed (km/s)
/
Latitude / Longitude
Inclination (degrees)
Orbital Period (minutes)
Azimuth
Elevation
Range (km)
Doppler Factor

Next 0 passes for location: London (51.5072 / 0.1276)

Sorry there are no passes over London.